This is the latest recevied weather packets stored in our database for station/object SQ7IQO. If no packets are shown the sender has not sent any weather packets the latest 10 day(s).
| Time | Temp. | Humidity | Pressure | Rain* | Wind** | Luminosity | Snow |
|---|---|---|---|---|---|---|---|
| 1787740958 | 23.33° C | 56% | 1023.9 hPa | 0 mm | 0 m/s | - | - |
| 1787740898 | 22.78° C | 56% | 1023.9 hPa | 0 mm | 0 m/s | - | - |
| 1787740838 | 23.33° C | 54% | 1024 hPa | 0 mm | 0 m/s | - | - |
| 1787740778 | 23.33° C | 55% | 1023.9 hPa | 0 mm | 0 m/s | - | - |
| 1787740718 | 22.78° C | 59% | 1024 hPa | 0 mm | 0 m/s | - | - |
| 1787740658 | 22.22° C | 58% | 1023.9 hPa | 0 mm | 0 m/s | - | - |
| 1787740598 | 21.67° C | 57% | 1023.9 hPa | 0 mm | 0 m/s | - | - |
| 1787740538 | 21.67° C | 57% | 1024 hPa | 0 mm | 0 m/s | - | - |
| 1787740478 | 21.67° C | 58% | 1024 hPa | 0 mm | 0 m/s | - | - |
| 1787740418 | 21.67° C | 60% | 1024 hPa | 0 mm | 0 m/s | - | - |
| 1787740358 | 21.11° C | 60% | 1024 hPa | 0 mm | 0 m/s | - | - |
| 1787740298 | 21.67° C | 58% | 1024 hPa | 0 mm | 0.45 m/s, ° | - | - |
| 1787740238 | 21.67° C | 58% | 1024 hPa | 0 mm | 0.89 m/s, ° | - | - |
| 1787740178 | 21.67° C | 56% | 1024 hPa | 0 mm | 0 m/s | - | - |
| 1787740118 | 21.67° C | 61% | 1024 hPa | 0 mm | 0.45 m/s, ° | - | - |
| 1787740058 | 21.67° C | 58% | 1024 hPa | 0 mm | 0 m/s | - | - |
| 1787739998 | 21.67° C | 56% | 1024 hPa | 0 mm | 0.89 m/s, ° | - | - |
| 1787739938 | 21.67° C | 57% | 1024 hPa | 0 mm | 0 m/s | - | - |
| 1787739878 | 22.22° C | 53% | 1024 hPa | 0 mm | 0 m/s | - | - |
| 1787739818 | 22.78° C | 54% | 1024 hPa | 0 mm | 0 m/s | - | - |
| 1787739758 | 22.78° C | 57% | 1024 hPa | 0 mm | 0 m/s | - | - |
| 1787739698 | 22.78° C | 55% | - | 0 mm | 0 m/s | - | - |
| 1787739638 | 22.78° C | 54% | 1024.1 hPa | 0 mm | 0 m/s | - | - |
| 1787739578 | 22.22° C | 58% | 1024 hPa | 0 mm | 0 m/s | - | - |
| 1787739518 | 22.22° C | 58% | 1024 hPa | 0 mm | 0 m/s | - | - |
* Rain latest hour (hover to see other rain measurements)
** Current wind speed in m/s (hover to see current wind gust speed)